Regional Weather Roundup
Issued by NWS Green Bay, WI

Home | Current Version | Previous Version | Graphics & Text | Print | Product List | Glossary Off
Versions: 1 2 3 4 5 6 7 8 9 10 11 12 13 14 15 16 17 18 19 20 21 22 23 24 25 26 27 28 29 30 31 32 33 34 35 36 37 38 39 40 41 42 43 44 45 46 47 48 49 50

000
ASUS43 KGRB 201701
RWRGRB

NORTH-CENTRAL AND NORTHEAST WISCONSIN REGIONAL WEATHER ROUNDUP
NATIONAL WEATHER SERVICE GREEN BAY WI
1200 PM CDT SUN AUG 20 2017

WIZ005-009-010>012-018-019-201800-
NORTH CENTRAL WISCONSIN

CITY           SKY/WX    TMP DP  RH WIND       PRES   REMARKS
IRONWOOD       MOSUNNY   78  65  63 S13G20    29.89S
MANITOWISH WTR NOT AVBL
ARBOR VITAE    NOT AVBL
EAGLE RIVER    NOT AVBL
LAND O LAKES   NOT AVBL
RHINELANDER    MOSUNNY   76  65  68 SW18G24   29.98F
PHILLIPS       NOT AVBL
ANTIGO         NOT AVBL
TOMAHAWK       NOT AVBL
MERRILL        NOT AVBL
$$

WIZ013-073-201800-
NORTHEAST WISCONSIN

CITY           SKY/WX    TMP DP  RH WIND       PRES   REMARKS
IRON MOUNTAIN  MOSUNNY   78  60  53 SW12G23   29.96F
MARINETTE      CLOUDY    77  65  66 SW9       30.00F
$$

WIZ017-030-035>037-045-201800-
CENTRAL WISCONSIN

CITY           SKY/WX    TMP DP  RH WIND       PRES   REMARKS
MEDFORD        NOT AVBL
WAUSAU         CLOUDY    75  64  68 S10       29.97F
MOSINEE        CLOUDY    73  66  78 S10       30.01S
MARSHFIELD     PTSUNNY   75  64  68 S10       29.99F
WISC RAPIDS    CLOUDY    76  65  68 SW12      30.01F
STEVENS POINT  NOT AVBL
WAUPACA        NOT AVBL
SHAWANO        NOT AVBL
CLINTONVILLE   NOT AVBL
WAUTOMA        PTSUNNY   77  66  68 S8        30.01F
$$

WIZ038-039-048-051-201800-
FOX VALLEY

CITY           SKY/WX    TMP DP  RH WIND       PRES   REMARKS
NWS GREEN BAY  MOSUNNY   76  66  71 SW10      30.01F
APPLETON       PTSUNNY   75  59  57 SW14      30.01S
OSHKOSH        CLOUDY    76  64  66 S12       30.02F
FOND DU LAC    CLOUDY    77  63  61 SW9       30.03S
$$

WIZ022-050-052-201800-
EAST CENTRAL WISCONSIN

CITY           SKY/WX    TMP DP  RH WIND       PRES   REMARKS
EPHRAIM        NOT AVBL
WASHINGTON ISL NOT AVBL
STURGEON BAY   CLOUDY    76  64  66 S14       30.01F
MANITOWOC      NOT AVBL
SHEBOYGAN      MOSUNNY   79  65  62 SW9       30.03F
$$

LMZ563-521-522-541>543-201800-
LAKESHORE

STATION/POSITION TIME  TEMP    WIND        PRES    VSBY  WAVE
                       AIR SEA DIR/SP/G                  HT/PER
                 (UTC) (F)     (DEG/KT/KT) (MB)    (MI)  (FT/S)
KEWAUNEE LKSHORE 1630   68     180/  8/ 10 1015.8F
NORTHPORT PIER   1640   77     210/  6/ 10 1015.6S
N MID LAKE BUOY  1550   68 67  190/ 12/ 12 1016.3R         1/ 4
S GREEN BAY BUOY 1630   73 71  210/ 10/ 12 1015.9S
SISTER BAY LKSHO 1618   77     240/ 12/ 16   N/A
MENOMINEE LKSHOR 1630   74     170/  8/ 10 1015.6F
$$




USA.gov is the U.S. government's official web portal to all federal, state and local government web resources and services.